Location: Cheyres
(46.8153°N, 6.7877°E)
Time: 13:28:29
(UTC+00:00)

Cosmos 990 Rocket - Pass Details

Date: 23 September 2021
Orbit: 746 x 769 km, 74.0° (Epoch: 24 October)

Event Time Altitude Azimuth Distance (km) Brightness Sun altitude
Rises 04:07:39 0° 350° (N) 3,235 7.3 -13.3°
Reaches altitude 10° 04:11:35 10° 19° (NNE) 2,310 6.9 -12.6°
Maximum altitude 04:13:48 13° 44° (NE) 2,137 7.2 -12.2°
Drops below altitude 10° 04:16:00 10° 69° (ENE) 2,310 8.0 -11.9°
Sets 04:19:55 0° 98° (E) 3,236 8.7 -11.2°
